SAOCOM 1A

Last updated on Sat Aug 15 2026 00:02:08 GMT+0000 (Coordinated Universal Time)

1 43641U 18076A 26226.60014747 -.00000104 00000+0 -65330-5 0 9995 2 43641 97.8887 52.5038 0001431 83.8955 276.2421 14.82146282424751
UTC large
Height (km)
Speed (km/s)
/
Latitude / Longitude
Inclination (degrees)
Orbital Period (minutes)
Azimuth
Elevation
Range (km)
Doppler Factor

Next 0 passes for location: London (51.5072 / 0.1276)

No passes found over London.